Wind_Speed
10 10 8 7 6 6 5 5 5 4 3 2 1 1 1 1 1 2 2 3 3 4 4 5 6 6 6 7 7 8 8 9 10 10 10 11 12 13 13 14 14 14 15
12 11 10 9 8 7 6 6 6 5 5 4 3 2 2 2 2 2 3 3 4 4 5 6 6 7 8 8 8 9 10 10 11 12 12 13 14 14 15 15 15 16 16
13 12 11 11 9 9 8 8 7 7 6 5 4 4 4 4 3 4 4 4 5 6 6 7 8 8 9 9 10 11 11 12 13 13 14 14 15 15 16 16 16 16 17
14 14 13 13 11 10 9 9 8 8 7 7 6 6 5 5 5 5 6 6 7 7 7 8 8 9 10 11 11 12 12 13 14 14 15 15 16 16 16 16 17 17 18
16 15 14 13 13 12 11 10 10 9 9 9 8 8 8 7 7 7 7 8 8 8 9 9 10 11 12 12 12 13 14 14 15 15 16 16 16 17 17 17 18 18 19
18 17 16 15 14 13 13 12 11 11 11 11 10 10 9 9 9 9 9 9 10 10 10 10 11 12 13 13 13 14 14 15 15 16 16 16 17 18 18 18 19 19 19
20 19 18 17 16 15 14 14 13 12 12 12 12 11 11 11 10 10 10 11 11 11 11 12 12 13 13 13 14 15 15 15 16 16 17 17 18 18 19 19 19 20 20
22 21 19 19 17 17 16 16 15 14 14 14 13 13 13 12 12 12 12 12 12 13 13 13 13 14 14 14 15 15 16 16 17 17 18 18 19 19 20 20 21 21 21
24 23 21 20 19 18 18 17 17 16 15 15 15 15 14 14 13 13 13 13 13 13 14 14 14 15 15 16 16 17 17 17 18 18 19 19 20 21 21 21 22 22 23
26 25 23 22 21 20 19 18 18 17 17 16 16 16 16 15 15 15 15 15 15 15 15 15 16 16 17 17 17 18 18 19 19 20 20 21 21 22 22 23 23 23 24
27 26 25 23 22 21 20 19 19 18 18 18 17 17 17 17 17 17 17 16 16 16 17 17 17 18 18 18 19 19 20 20 21 21 21 22 22 23 23 24 24 24 25
29 27 26 25 24 23 22 22 21 20 20 19 19 19 19 19 19 19 18 18 18 18 18 18 19 19 19 20 20 21 21 22 22 22 23 23 24 24 25 25 25 25 26
31 30 28 28 27 26 25 24 23 22 22 21 21 21 21 21 21 21 20 20 20 20 20 20 20 21 21 21 22 22 22 22 23 23 24 24 25 26 26 26 27 27 27
32 31 30 29 28 27 27 26 25 24 23 23 23 23 23 23 23 23 22 22 22 22 22 22 22 22 22 23 24 24 24 24 24 25 25 26 26 27 27 28 28 28 28
35 34 33 32 31 30 29 27 26 26 25 25 25 25 25 25 25 25 24 24 24 24 23 23 23 24 25 25 26 26 26 26 26 27 27 27 28 28 29 29 29 30 30
36 35 35 34 33 32 31 30 29 28 28 27 27 27 27 27 27 27 26 26 26 26 25 25 26 26 27 27 27 28 28 28 28 28 29 29 29 30 31 31 31 31 32
36 36 35 35 34 33 32 31 31 30 30 29 29 29 29 29 29 29 28 28 28 27 27 27 28 28 29 29 29 30 30 30 30 30 30 31 31 32 32 32 32 33 34
38 37 37 36 36 35 34 33 32 32 32 31 31 31 30 30 30 30 30 30 30 29 29 29 30 30 30 31 31 31 31 32 32 32 32 32 32 33 33 33 34 35 36
39 39 39 38 38 37 36 35 34 34 34 34 33 33 32 32 32 32 32 31 32 31 31 31 31 32 32 32 33 33 32 33 33 33 33 33 33 34 34 35 36 36 37
39 39 40 40 39 39 38 36 36 36 36 36 35 34 33 33 34 34 34 34 33 33 33 33 33 34 34 34 33 33 33 33 34 34 34 34 35 35 35 36 37 38 38
41 41 41 41 40 40 39 38 37 38 38 37 37 36 36 36 36 36 36 35 35 34 35 35 35 35 35 34 34 34 34 34 34 35 35 36 36 36 37 38 38 39 39
43 42 42 42 42 41 40 40 39 39 39 38 38 38 38 38 38 38 37 36 36 36 36 36 36 36 36 36 35 35 35 35 35 35 36 37 37 38 38 39 39 39 39
44 43 42 42 42 42 42 42 41 41 41 40 39 40 40 40 39 40 39 38 36 36 36 37 37 37 37 36 36 37 37 37 36 36 37 38 38 38 39 39 39 40 40
44 44 44 43 43 43 43 43 43 42 42 41 41 42 42 41 41 41 40 39 39 39 38 38 37 37 37 37 37 38 38 38 38 37 37 38 39 39 39 40 40 41 41
46 45 45 45 45 44 44 43 44 43 43 43 43 43 43 43 43 42 41 40 40 40 40 40 40 40 40 39 39 39 39 39 40 39 38 38 39 40 40 40 41 41 42
46 46 46 46 45 45 45 44 44 44 44 44 44 43 43 43 43 42 41 40 40 41 42 42 41 42 42 41 41 41 41 40 40 40 41 40 40 40 40 41 42 42 43
Wind_Direction
222 220 219 222 218 213 209 205 201 198 196 194 206 239 293 307 314 317 326 334 340 338 341 340 339 334 332 332 332 331 329 327 325 323 323 324 323 321 321 320 319 319 318
225 223 223 225 225 222 219 216 214 213 212 218 230 246 259 271 285 296 301 313 317 318 324 326 325 322 320 321 321 321 321 319 318 316 316 317 316 315 315 315 316 316 316
229 228 228 229 229 226 225 223 222 221 222 231 242 249 254 263 275 286 293 304 307 311 314 314 315 315 314 314 315 315 315 315 314 312 312 312 313 312 312 312 312 314 313
230 230 231 233 232 231 231 229 228 228 230 237 246 250 253 261 272 279 288 296 301 306 309 309 309 311 309 309 311 312 313 314 314 313 312 311 312 312 311 310 310 310 310
232 233 234 236 235 236 235 233 234 237 238 241 245 251 253 258 267 276 281 288 294 299 303 304 304 307 306 308 309 310 311 313 314 314 313 312 312 312 310 309 309 309 309
233 233 235 236 237 237 236 238 240 242 242 243 246 250 254 258 266 272 277 283 288 293 296 300 302 302 303 305 307 309 311 313 315 314 314 312 312 311 311 309 309 309 309
234 234 234 236 238 237 237 239 243 245 245 246 248 250 253 258 265 270 274 277 282 286 291 295 299 300 301 303 305 307 309 311 312 312 312 312 311 312 312 310 309 309 308
235 235 235 236 238 239 239 240 243 246 249 250 251 253 255 259 264 269 273 277 279 283 288 292 296 299 301 302 304 306 307 308 308 309 309 310 310 311 311 310 309 308 307
235 236 237 237 238 240 242 242 244 246 249 252 253 256 257 259 264 268 273 277 280 283 287 290 293 296 299 301 302 304 306 306 306 306 307 308 309 309 309 308 307 306 306
236 237 237 239 239 240 242 243 245 247 249 251 252 256 259 261 264 268 271 275 278 282 286 288 291 294 297 299 300 301 302 303 304 304 304 306 307 307 307 307 306 306 306
236 237 238 239 240 241 242 244 246 247 248 251 252 255 259 262 265 268 270 273 277 281 284 286 289 291 294 295 297 299 300 301 303 303 303 304 305 306 306 306 306 306 306
237 238 238 239 240 241 242 244 246 248 250 252 253 256 259 262 265 268 269 272 276 279 281 284 287 290 291 293 295 297 299 300 301 301 302 303 304 305 304 304 305 305 305
236 238 238 239 240 241 243 244 246 248 250 253 255 257 260 262 265 267 269 272 275 277 279 282 285 287 289 291 293 295 297 299 299 300 301 302 303 303 303 304 304 304 304
236 238 239 240 240 241 243 244 246 249 251 254 257 258 259 261 263 266 269 272 275 278 278 281 283 285 288 290 291 293 294 296 297 299 300 301 302 302 302 303 303 303 304
236 237 239 240 241 242 243 244 247 249 251 253 255 257 259 261 263 265 267 271 274 277 279 281 283 285 287 289 291 292 292 294 295 297 298 299 300 301 302 302 302 303 303
237 238 239 240 241 242 244 245 246 249 251 253 255 257 259 261 264 265 267 270 272 275 278 280 282 284 286 287 289 290 291 293 294 296 297 297 299 300 301 301 301 301 302
237 238 239 240 242 243 245 246 247 249 251 254 255 257 259 261 263 265 267 270 272 274 277 279 280 282 284 286 287 288 289 291 293 294 295 296 297 298 299 299 300 301 301
237 238 239 240 241 243 244 246 248 250 252 254 255 257 258 261 263 265 267 269 271 273 276 278 279 281 282 285 286 287 288 290 292 293 294 295 296 297 298 298 299 300 301
237 238 239 240 241 242 244 245 248 250 252 253 255 256 258 259 262 265 267 269 271 272 274 277 279 280 281 283 285 287 288 289 290 292 293 294 295 296 297 298 299 299 300
238 239 240 240 241 242 244 245 247 249 251 252 254 256 258 260 261 263 266 268 270 272 273 276 278 279 280 282 284 286 287 288 289 290 292 293 294 295 297 297 298 298 299
238 239 240 241 242 244 245 246 247 249 251 253 254 255 257 259 261 262 264 266 268 271 272 274 276 277 279 281 283 284 286 287 288 289 290 292 293 294 296 296 297 298 298
238 240 240 242 243 244 246 247 248 250 251 253 255 256 258 259 260 261 261 264 267 269 271 273 274 276 279 280 282 283 284 286 286 288 290 291 292 294 295 296 297 298 299
238 239 241 242 243 244 246 247 248 250 252 253 255 256 258 258 259 260 262 264 267 268 270 273 274 276 277 279 281 282 284 285 285 286 288 290 292 293 294 296 297 297 298
239 240 241 243 244 245 246 248 249 251 253 255 256 257 258 259 261 262 263 263 265 267 268 270 273 276 277 278 280 282 283 284 285 286 287 289 291 292 294 295 296 297 297
240 240 242 243 244 245 247 249 250 251 253 255 257 259 261 261 262 263 264 263 265 268 269 270 272 274 276 278 280 281 283 284 285 286 286 288 289 291 292 293 295 295 296
241 241 241 243 244 246 248 249 251 253 255 256 258 260 262 262 263 263 264 265 266 269 269 270 272 274 276 277 279 280 281 283 285 286 287 287 288 290 291 292 293 294 295
Height
5870 5871 5872 5873 5874 5875 5876 5877 5878 5879 5880 5881 5881 5882 5883 5883 5884 5884 5885 5885 5886 5886 5886 5886 5886 5886 5885 5885 5885 5884 5884 5883 5883 5882 5881 5880 5880 5879 5878 5877 5876 5875 5874
5868 5870 5871 5872 5873 5874 5875 5876 5877 5878 5879 5880 5881 5882 5882 5883 5883 5884 5884 5885 5885 5885 5885 5885 5885 5885 5885 5884 5884 5883 5883 5882 5881 5881 5880 5879 5878 5877 5876 5875 5874 5873 5872
5867 5868 5869 5870 5872 5873 5874 5875 5876 5877 5878 5879 5880 5881 5881 5882 5883 5883 5884 5884 5884 5885 5884 5884 5884 5884 5883 5883 5883 5882 5881 5881 5880 5879 5878 5877 5876 5875 5874 5873 5872 5871 5869
5865 5866 5867 5869 5870 5871 5872 5874 5875 5876 5877 5878 5879 5880 5880 5881 5882 5882 5883 5883 5883 5883 5883 5883 5883 5883 5882 5882 5881 5880 5880 5879 5878 5877 5876 5875 5874 5873 5872 5871 5869 5868 5867
5862 5864 5865 5867 5868 5870 5871 5872 5873 5874 5875 5876 5877 5878 5879 5880 5880 5881 5881 5882 5882 5882 5882 5882 5881 5881 5881 5880 5879 5878 5878 5877 5876 5875 5874 5873 5872 5870 5869 5868 5867 5865 5864
5860 5861 5863 5865 5866 5868 5869 5870 5872 5873 5874 5875 5876 5877 5877 5878 5879 5879 5880 5880 5880 5880 5880 5880 5880 5879 5878 5878 5877 5876 5876 5875 5874 5873 5872 5871 5869 5868 5867 5865 5864 5862 5861
5857 5859 5860 5862 5864 5865 5867 5868 5869 5870 5872 5873 5874 5875 5875 5876 5877 5877 5878 5878 5878 5878 5878 5878 5877 5877 5876 5876 5875 5874 5873 5872 5871 5870 5869 5868 5867 5865 5864 5862 5861 5859 5858
5854 5856 5857 5859 5861 5863 5864 5866 5867 5868 5869 5870 5871 5872 5873 5874 5874 5875 5876 5876 5876 5876 5876 5875 5875 5874 5874 5873 5873 5872 5871 5870 5869 5868 5867 5865 5864 5862 5861 5859 5857 5856 5854
5850 5852 5854 5856 5858 5860 5861 5863 5864 5865 5866 5867 5868 5869 5870 5871 5872 5873 5873 5873 5873 5873 5873 5873 5872 5872 5871 5871 5870 5869 5868 5867 5866 5865 5864 5862 5861 5859 5857 5856 5854 5852 5850
5846 5848 5851 5853 5855 5856 5858 5859 5861 5862 5863 5864 5865 5866 5867 5868 5869 5870 5870 5870 5871 5871 5870 5870 5870 5869 5869 5868 5867 5866 5865 5864 5863 5862 5860 5859 5857 5856 5854 5852 5850 5848 5846
5841 5844 5846 5849 5851 5853 5854 5856 5857 5859 5860 5861 5862 5863 5864 5865 5866 5867 5867 5867 5867 5867 5867 5867 5866 5866 5866 5865 5864 5863 5862 5861 5860 5858 5857 5855 5854 5852 5850 5848 5846 5844 5842
5837 5840 5842 5844 5847 5849 5850 5852 5854 5855 5857 5858 5859 5860 5861 5862 5862 5863 5863 5864 5864 5864 5864 5864 5863 5863 5862 5861 5861 5860 5858 5857 5856 5854 5853 5851 5849 5847 5845 5843 5841 5839 5837
5832 5834 5837 5840 5842 5844 5846 5848 5850 5851 5853 5854 5855 5856 5857 5858 5858 5859 5860 5860 5860 5860 5860 5860 5859 5859 5858 5857 5857 5856 5854 5853 5852 5850 5849 5847 5845 5843 5841 5839 5837 5834 5832
5826 5829 5832 5834 5837 5839 5841 5843 5845 5847 5848 5850 5850 5851 5853 5853 5854 5855 5855 5855 5856 5855 5855 5855 5855 5854 5854 5853 5852 5851 5850 5848 5847 5846 5844 5842 5840 5838 5836 5834 5832 5829 5827
5820 5823 5826 5829 5831 5833 5835 5838 5840 5842 5843 5845 5846 5847 5848 5849 5849 5850 5851 5851 5851 5851 5851 5851 5850 5850 5849 5848 5847 5846 5845 5844 5842 5841 5839 5837 5835 5833 5831 5829 5827 5824 5821
5813 5817 5820 5822 5825 5827 5830 5832 5834 5836 5838 5839 5840 5841 5842 5843 5844 5845 5845 5846 5846 5846 5846 5845 5845 5845 5844 5843 5842 5841 5840 5838 5837 5835 5834 5832 5830 5828 5825 5823 5821 5818 5815
5807 5810 5813 5816 5818 5821 5823 5826 5828 5830 5832 5833 5834 5835 5836 5837 5838 5839 5840 5840 5840 5840 5840 5840 5839 5839 5838 5837 5836 5835 5834 5833 5831 5830 5828 5826 5824 5822 5819 5817 5814 5812 5809
5799 5802 5806 5809 5812 5814 5817 5819 5821 5823 5825 5826 5827 5829 5830 5831 5832 5833 5833 5834 5834 5834 5834 5834 5833 5833 5832 5831 5830 5829 5828 5826 5825 5823 5822 5819 5817 5815 5813 5810 5808 5805 5802
5792 5795 5798 5801 5804 5807 5810 5812 5814 5816 5818 5819 5821 5822 5823 5824 5825 5826 5827 5827 5828 5828 5828 5827 5827 5826 5826 5825 5824 5822 5821 5820 5818 5817 5815 5813 5811 5808 5806 5804 5801 5798 5795
5784 5787 5790 5793 5796 5799 5802 5805 5807 5809 5811 5812 5813 5815 5816 5817 5818 5819 5819 5820 5821 5821 5821 5820 5820 5819 5819 5818 5817 5816 5814 5813 5811 5810 5808 5806 5804 5801 5799 5796 5794 5791 5788
5775 5779 5782 5785 5788 5791 5794 5796 5799 5801 5803 5804 5806 5807 5808 5809 5810 5811 5812 5812 5813 5813 5813 5813 5813 5812 5811 5811 5810 5809 5807 5806 5804 5803 5801 5799 5796 5794 5792 5789 5786 5783 5780
5767 5770 5773 5776 5779 5782 5785 5788 5790 5792 5794 5796 5798 5799 5800 5801 5802 5802 5803 5804 5804 5805 5805 5805 5805 5804 5804 5803 5802 5801 5800 5800 5797 5795 5793 5791 5789 5786 5784 5781 5778 5775 5772
5758 5761 5764 5768 5771 5774 5777 5779 5782 5784 5786 5787 5789 5790 5791 5792 5793 5794 5794 5795 5796 5797 5797 5796 5796 5796 5795 5795 5794 5793 5792 5791 5790 5789 5786 5783 5781 5778 5776 5773 5769 5766 5763
5748 5752 5755 5758 5762 5765 5767 5770 5773 5775 5777 5779 5780 5781 5782 5783 5784 5784 5785 5786 5786 5787 5788 5788 5788 5787 5787 5786 5785 5784 5784 5782 5781 5781 5779 5776 5773 5770 5767 5764 5761 5758 5754
5739 5743 5746 5749 5752 5755 5758 5761 5763 5766 5767 5769 5771 5772 5773 5774 5774 5775 5775 5776 5777 5777 5778 5778 5778 5778 5778 5777 5777 5776 5775 5773 5772 5771 5770 5769 5766 5762 5759 5756 5753 5749 5746
5730 5733 5737 5740 5743 5746 5749 5751 5754 5756 5758 5760 5761 5762 5763 5764 5764 5765 5765 5766 5767 5767 5768 5768 5768 5768 5768 5768 5767 5766 5765 5764 5763 5761 5760 5759 5757 5754 5751 5747 5744 5740 5736